Location: Unspecified
(0.0000°N, 0.0000°E)
Time: 01:25:16
(UTC+00:00)

deb Kosmos-1275 - Pass Details

Date: 11 March 2026
Orbit: 924 x 993 km, 82.9° (Epoch: 14 April)

Event Time Altitude Azimuth Distance (km) Brightness Sun altitude
Rises 18:18:56 0° 358° (N) 3,617 ? -2.2°
Reaches altitude 10° 18:21:24 10° 359° (N) 2,684 ? -2.9°
Maximum altitude 18:27:34 84° 87° (E) 980 ? -4.4°
Drops below altitude 10° 18:33:51 10° 175° (S) 2,739 ? -6.0°
Sets 18:36:23 0° 175° (S) 3,695 ? -6.6°
